When you browse on this site, cookies collect data to enhance your experience and personalize the content and advertising you see.
Visit our Privacy Policy to learn more. By continuing to use the site, you agree to this use of cookies and data.
  • In France
  • List of Countries
  • For 7 days
  • Water Temperature
  • Satellite Maps
  • Weather Map
  • Weather Widgets
  • user-avatar
    Login

    Hourly Weather Shaki

    Today, 10 December, Monday

    Time Temperature Precipitation Wind Pressure Humidity
    00:00 +6°C° 0 mm 1 mps 737 mmHg 76%
    01:00 +6°C° 0 mm 1 mps 737 mmHg 76%
    02:00 +6°C° 0 mm 1 mps 737 mmHg 75%
    03:00 +6°C° 0 mm 1 mps 736 mmHg 75%
    04:00 +6°C° 0 mm 1 mps 736 mmHg 74%
    05:00 +5°C° 0 mm 1 mps 736 mmHg 73%
    06:00 +5°C° 0 mm 1 mps 736 mmHg 72%
    07:00 +6°C° 0 mm 1 mps 736 mmHg 69%
    08:00 +7°C° 0 mm 1 mps 736 mmHg 65%
    09:00 +9°C° 0 mm 1 mps 735 mmHg 61%
    10:00 +10°C° 0 mm 1 mps 735 mmHg 57%
    11:00 +10°C° 0 mm 1 mps 734 mmHg 53%
    12:00 +11°C° 0 mm 1 mps 734 mmHg 49%
    13:00 +11°C° 0 mm 1 mps 734 mmHg 49%
    14:00 +12°C° 0 mm 1 mps 734 mmHg 49%
    15:00 +11°C° 0 mm 1 mps 733 mmHg 50%
    16:00 +10°C° 0 mm 1 mps 733 mmHg 52%
    17:00 +9°C° 0 mm 1 mps 733 mmHg 54%
    18:00 +9°C° 0 mm 1 mps 734 mmHg 57%
    19:00 +8°C° 0 mm 1 mps 734 mmHg 57%
    20:00 +8°C° 0 mm 1 mps 734 mmHg 57%
    21:00 +8°C° 0 mm 1 mps 734 mmHg 57%
    22:00 +8°C° 0 mm 1 mps 733 mmHg 56%
    23:00 +7°C° 0 mm 2 mps 733 mmHg 56%

    Tomorrow, 11 December, Tuesday

    Time Temperature Precipitation Wind Pressure Humidity
    00:00 +7°C° 0 mm 2 mps 733 mmHg 56%
    01:00 +7°C° 0 mm 2 mps 733 mmHg 54%
    02:00 +7°C° 0 mm 2 mps 733 mmHg 53%
    03:00 +7°C° 0 mm 2 mps 733 mmHg 51%
    04:00 +7°C° 0 mm 2 mps 733 mmHg 51%
    05:00 +7°C° 0 mm 2 mps 733 mmHg 50%
    06:00 +7°C° 0 mm 2 mps 733 mmHg 50%
    07:00 +8°C° 0 mm 2 mps 733 mmHg 49%
    08:00 +9°C° 0 mm 2 mps 733 mmHg 47%
    09:00 +12°C° 0 mm 2 mps 733 mmHg 46%
    10:00 +13°C° 0 mm 2 mps 733 mmHg 43%
    11:00 +14°C° 0 mm 2 mps 732 mmHg 40%
    12:00 +15°C° 0 mm 2 mps 732 mmHg 37%
    13:00 +15°C° 0 mm 2 mps 732 mmHg 38%
    14:00 +15°C° 0 mm 2 mps 732 mmHg 39%
    15:00 +15°C° 0 mm 2 mps 731 mmHg 40%
    16:00 +14°C° 0 mm 2 mps 731 mmHg 43%
    17:00 +13°C° 0 mm 2 mps 731 mmHg 46%
    18:00 +10°C° 0 mm 2 mps 731 mmHg 49%
    19:00 +10°C° 0 mm 2 mps 731 mmHg 50%
    20:00 +10°C° 0 mm 2 mps 731 mmHg 50%
    21:00 +10°C° 0 mm 2 mps 730 mmHg 51%
    22:00 +10°C° 0 mm 2 mps 730 mmHg 50%
    23:00 +10°C° 0 mm 2 mps 730 mmHg 49%

    Day after tomorrow, 12 December, Wednesday

    Time Temperature Precipitation Wind Pressure Humidity
    00:00 +10°C° 0 mm 2 mps 730 mmHg 48%
    01:00 +10°C° 0 mm 2 mps 730 mmHg 47%
    02:00 +10°C° 0 mm 2 mps 730 mmHg 46%
    03:00 +10°C° 0 mm 2 mps 731 mmHg 45%
    04:00 +10°C° 0 mm 3 mps 731 mmHg 45%
    05:00 +10°C° 0 mm 3 mps 732 mmHg 46%
    06:00 +10°C° 0 mm 4 mps 732 mmHg 47%
    07:00 +10°C° 0 mm 4 mps 733 mmHg 47%
    08:00 +11°C° 0 mm 4 mps 733 mmHg 46%
    09:00 +11°C° 0 mm 4 mps 734 mmHg 46%
    10:00 +12°C° 0 mm 4 mps 733 mmHg 43%
    11:00 +13°C° 0 mm 4 mps 733 mmHg 39%
    12:00 +14°C° 0 mm 4 mps 733 mmHg 36%
    13:00 +14°C° 0 mm 3 mps 733 mmHg 39%
    14:00 +14°C° 0 mm 2 mps 733 mmHg 42%
    15:00 +13°C° 0 mm 1 mps 732 mmHg 45%
    16:00 +13°C° 0.1 mm 2 mps 732 mmHg 47%
    17:00 +12°C° 0.1 mm 2 mps 732 mmHg 50%
    18:00 +10°C° 0.1 mm 2 mps 732 mmHg 53%
    19:00 +10°C° 0.2 mm 2 mps 732 mmHg 55%
    20:00 +10°C° 0.2 mm 2 mps 732 mmHg 56%
    21:00 +10°C° 0.2 mm 2 mps 732 mmHg 58%
    22:00 +9°C° 0.1 mm 2 mps 732 mmHg 60%
    23:00 +9°C° 0.1 mm 2 mps 732 mmHg 62%

    13 December, Thursday

    Time Temperature Precipitation Wind Pressure Humidity
    00:00 +10°C° 0.1 mm 1 mps 731 mmHg 64%
    01:00 +9°C° 0.2 mm 2 mps 731 mmHg 66%
    02:00 +9°C° 0.2 mm 2 mps 731 mmHg 68%
    03:00 +8°C° 0.2 mm 2 mps 731 mmHg 70%
    04:00 +8°C° 0.1 mm 2 mps 731 mmHg 70%
    05:00 +8°C° 0.1 mm 2 mps 731 mmHg 70%
    06:00 +8°C° 0.1 mm 2 mps 731 mmHg 70%
    07:00 +9°C° 0 mm 2 mps 732 mmHg 67%
    08:00 +10°C° 0 mm 2 mps 732 mmHg 63%
    09:00 +10°C° 0 mm 2 mps 732 mmHg 60%
    10:00 +11°C° 0 mm 3 mps 732 mmHg 54%
    11:00 +12°C° 0 mm 4 mps 733 mmHg 48%
    12:00 +13°C° 0 mm 5 mps 733 mmHg 42%
    13:00 +13°C° 0 mm 5 mps 733 mmHg 42%
    14:00 +12°C° 0 mm 5 mps 734 mmHg 43%
    15:00 +12°C° 0 mm 5 mps 734 mmHg 44%
    16:00 +9°C° 0 mm 5 mps 735 mmHg 44%
    17:00 +8°C° 0 mm 4 mps 736 mmHg 44%
    18:00 +7°C° 0 mm 4 mps 737 mmHg 44%
    19:00 +7°C° 0 mm 4 mps 737 mmHg 44%
    20:00 +6°C° 0 mm 4 mps 738 mmHg 43%
    21:00 +6°C° 0 mm 4 mps 738 mmHg 43%
    22:00 +7°C° 0 mm 3 mps 738 mmHg 42%
    23:00 +5°C° 0 mm 3 mps 739 mmHg 41%

    14 December, Friday

    Time Temperature Precipitation Wind Pressure Humidity
    00:00 +5°C° 0 mm 3 mps 739 mmHg 40%
    01:00 +5°C° 0 mm 3 mps 739 mmHg 40%
    02:00 +4°C° 0 mm 3 mps 740 mmHg 40%
    03:00 +4°C° 0 mm 3 mps 740 mmHg 40%
    04:00 +4°C° 0 mm 3 mps 741 mmHg 41%
    05:00 +3°C° 0 mm 3 mps 741 mmHg 42%
    06:00 +3°C° 0 mm 3 mps 741 mmHg 43%
    07:00 +5°C° 0 mm 2 mps 742 mmHg 43%
    08:00 +5°C° 0 mm 2 mps 742 mmHg 42%
    09:00 +6°C° 0 mm 2 mps 742 mmHg 41%
    10:00 +7°C° 0 mm 2 mps 741 mmHg 38%
    11:00 +8°C° 0 mm 2 mps 741 mmHg 34%
    12:00 +9°C° 0 mm 2 mps 740 mmHg 31%
    13:00 +9°C° 0 mm 2 mps 740 mmHg 32%
    14:00 +9°C° 0 mm 2 mps 740 mmHg 32%
    15:00 +9°C° 0 mm 2 mps 740 mmHg 33%
    16:00 +8°C° 0 mm 2 mps 740 mmHg 37%
    17:00 +8°C° 0 mm 1 mps 740 mmHg 41%
    18:00 +7°C° 0 mm 1 mps 740 mmHg 44%
    19:00 +7°C° 0 mm 1 mps 740 mmHg 47%
    20:00 +7°C° 0 mm 1 mps 739 mmHg 49%
    21:00 +7°C° 0 mm 1 mps 739 mmHg 52%
    22:00 +6°C° 0.1 mm 2 mps 739 mmHg 54%
    23:00 +6°C° 0.1 mm 2 mps 739 mmHg 56%

    15 December, Saturday

    Time Temperature Precipitation Wind Pressure Humidity
    00:00 +6°C° 0.1 mm 2 mps 739 mmHg 58%
    01:00 +6°C° 0 mm 2 mps 739 mmHg 60%
    02:00 +4°C° 0 mm 3 mps 740 mmHg 61%
    03:00 +4°C° 0 mm 3 mps 740 mmHg 62%
    04:00 +4°C° 0 mm 3 mps 740 mmHg 62%
    05:00 +3°C° 0 mm 3 mps 740 mmHg 61%
    06:00 +3°C° 0 mm 3 mps 740 mmHg 60%
    07:00 +4°C° 0 mm 3 mps 741 mmHg 56%
    08:00 +4°C° 0 mm 3 mps 741 mmHg 53%
    09:00 +5°C° 0 mm 3 mps 742 mmHg 49%
    10:00 +6°C° 0 mm 4 mps 742 mmHg 46%
    11:00 +7°C° 0 mm 4 mps 741 mmHg 42%
    12:00 +8°C° 0 mm 4 mps 741 mmHg 38%
    13:00 +8°C° 0 mm 4 mps 741 mmHg 39%
    14:00 +8°C° 0 mm 4 mps 741 mmHg 39%
    15:00 +8°C° 0 mm 4 mps 742 mmHg 39%
    16:00 +8°C° 0 mm 3 mps 742 mmHg 41%
    17:00 +7°C° 0 mm 3 mps 742 mmHg 42%
    18:00 +5°C° 0 mm 3 mps 743 mmHg 44%
    19:00 +5°C° 0 mm 2 mps 743 mmHg 43%
    20:00 +5°C° 0 mm 2 mps 743 mmHg 43%
    21:00 +5°C° 0 mm 2 mps 743 mmHg 43%
    22:00 +4°C° 0 mm 2 mps 743 mmHg 44%
    23:00 +4°C° 0 mm 2 mps 743 mmHg 44%
    Show more